Weather reports worldwide

Advertisment
Portglenone, United Kingdom (3915): temperature & dewpoint: 05.12.2018 23:00:00 - 11.12.2018 23:00:00 (GMT)Portglenone, United Kingdom (3915): temperature -20cm & temperature -100cm: 05.12.2018 23:00:00 - 11.12.2018 23:00:00 (GMT)Portglenone, United Kingdom (3915): wind speed & gusts: 05.12.2018 23:00:00 - 11.12.2018 23:00:00 (GMT)Portglenone, United Kingdom (3915): wind direction: 05.12.2018 23:00:00 - 11.12.2018 23:00:00 (GMT)Portglenone, United Kingdom (3915): reduced air pressure: 05.12.2018 23:00:00 - 11.12.2018 23:00:00 (GMT)Portglenone, United Kingdom (3915): visibility: 05.12.2018 23:00:00 - 11.12.2018 23:00:00 (GMT)Portglenone, United Kingdom (3915): precipitation: 05.12.2018 23:00:00 - 11.12.2018 23:00:00 (GMT)
Date & Time tt [°C] td [°C] tt -20cm [°C] tt -100cm [°C] ff [km/h] ff [kn] fx [km/h] fx [kn] dd ppp [hPa] vv [km] rr [mm]
11.12.2018 23:00:00 9,7 8,1 - - 28 15 48 26 SE 1013,8 13 0,0
11.12.2018 22:00:00 9,4 8,0 - - 28 15 46 25 SE 1013,5 14 0,0
11.12.2018 21:00:00 9,6 7,8 - - 26 14 - - SE 1013,7 19 0,0
11.12.2018 20:00:00 9,3 7,8 - - 24 13 - - SE 1013,9 21 0,0
11.12.2018 19:00:00 9,1 8,3 - - 28 15 - - SE 1014,1 13 0,0
11.12.2018 18:00:00 9,2 8,4 - - 22 12 - - SE 1014,3 9 0,0
11.12.2018 17:00:00 9,4 8,2 - - 24 13 - - SE 1014,3 12 0,0
11.12.2018 16:00:00 9,7 7,7 - - 24 13 - - SE 1014,6 23 0,0
11.12.2018 15:00:00 9,8 7,9 - - 26 14 48 26 SSE 1015,0 29 -
11.12.2018 14:00:00 10,3 8,4 - - 28 15 48 26 SSE 1015,6 27 0,0
11.12.2018 13:00:00 10,2 8,4 - - 29 16 - - SSE 1016,2 15 0,0
11.12.2018 12:00:00 10,1 8,6 - - 21 11 - - SE 1017,1 19 0,0
11.12.2018 11:00:00 9,7 8,7 - - 18 10 - - SE 1017,6 19 0,0
11.12.2018 10:00:00 9,0 8,4 - - 15 8 - - SE 1017,8 10 0,0
11.12.2018 09:00:00 8,3 7,7 10,7 8,2 21 11 - - SE 1017,8 8 0,0
11.12.2018 08:00:00 8,3 7,5 - - 18 10 - - ESE 1017,8 9 0,0
11.12.2018 07:00:00 8,6 7,8 - - 15 8 - - SE 1018,2 11 0,0
11.12.2018 06:00:00 8,9 8,2 - - 16 9 - - SSE 1018,6 10 0,0
11.12.2018 05:00:00 8,8 8,3 - - 18 10 - - SSE 1018,8 8 0,0
11.12.2018 04:00:00 8,4 8,2 - - 16 9 - - SSE 1019,7 4,6 0,0
11.12.2018 03:00:00 8,3 8,2 - - 21 11 - - SSE 1020,3 3,6 0,0
11.12.2018 02:00:00 8,0 7,9 - - 21 11 - - SSE 1020,6 2,9 0,0
11.12.2018 01:00:00 7,9 7,7 - - 18 10 - - SSE 1021,4 1,8 0,0
11.12.2018 00:00:00 8,2 7,4 - - 18 10 - - SSE 1021,6 10 0,0
10.12.2018 23:00:00 7,9 6,6 - - 16 9 - - SSE 1022,0 14 0,0
10.12.2018 22:00:00 7,6 5,8 - - 16 9 - - SE 1022,6 17 0,0
10.12.2018 21:00:00 7,1 5,4 - - 11 6 - - SSE 1023,0 17 0,0
10.12.2018 20:00:00 7,4 5,4 - - 15 8 - - SSE 1023,1 16 0,0
10.12.2018 19:00:00 6,9 5,1 - - 18 10 - - SSE 1023,6 15 0,0
10.12.2018 18:00:00 6,6 4,6 - - 16 9 - - SSE 1023,9 22 0,2
10.12.2018 17:00:00 6,7 4,8 - - 15 8 - - SSE 1024,0 18 0,0
10.12.2018 16:00:00 6,0 4,7 - - 13 7 - - SSE 1024,5 15 0,0
10.12.2018 15:00:00 5,6 4,7 - - 9 5 - - ESE 1024,9 17 0,0
10.12.2018 14:00:00 5,5 4,8 - - 11 6 - - ESE 1025,3 14 0,0
10.12.2018 13:00:00 5,8 4,8 - - 9 5 - - SE 1025,5 18 0,0
10.12.2018 12:00:00 5,6 4,6 - - 9 5 - - SE 1025,7 17 0,0
10.12.2018 11:00:00 5,4 4,4 - - 8 4 - - SSE 1025,9 20 0,0
10.12.2018 10:00:00 4,9 3,9 - - 9 5 - - SSE 1026,3 22 0,0
10.12.2018 09:00:00 4,8 3,7 10,9 8,2 9 5 - - SE 1025,7 22 0,0
10.12.2018 08:00:00 4,4 3,5 - - 9 5 - - SE 1025,4 18 0,0
10.12.2018 07:00:00 4,2 3,6 - - 4 2 - - SSE 1025,1 23 0,0
10.12.2018 06:00:00 3,8 3,2 - - 5 3 - - SE 1024,8 22 0,0
10.12.2018 05:00:00 4,5 3,4 - - 4 2 - - W 1024,3 30 0,0
10.12.2018 04:00:00 4,1 3,4 - - 8 4 - - SE 1024,3 30 0,0
10.12.2018 03:00:00 5,0 3,8 - - 4 2 - - SW 1023,7 35 0,0
10.12.2018 02:00:00 5,7 4,4 - - 11 6 - - NW 1022,7 40 0,0
10.12.2018 01:00:00 6,4 4,7 - - 13 7 - - W 1022,6 30 0,0
10.12.2018 00:00:00 6,5 4,9 - - 16 9 - - W 1022,2 30 0,0
09.12.2018 23:00:00 6,2 5,0 - - 16 9 - - WNW 1021,2 35 0,0
09.12.2018 22:00:00 6,2 5,1 - - 21 11 - - WNW 1020,6 40 0,0
09.12.2018 21:00:00 5,6 4,6 - - 8 4 - - W 1020,0 35 0,0
09.12.2018 20:00:00 5,6 4,4 - - 8 4 - - W 1019,3 35 0,0
09.12.2018 19:00:00 5,7 4,7 - - 9 5 - - W 1018,6 28 0,0
09.12.2018 18:00:00 5,2 4,3 - - 5 3 - - WSW 1018,0 25 0,0
09.12.2018 17:00:00 5,6 4,8 - - 8 4 - - W 1016,8 35 0,2
09.12.2018 16:00:00 6,2 5,4 - - 9 5 - - NNW 1016,0 30 2,4
09.12.2018 15:00:00 7,4 5,5 - - 9 5 - - W 1014,8 35 0,2
09.12.2018 14:00:00 8,2 5,8 - - 15 8 - - WNW 1013,9 20 0,0
09.12.2018 13:00:00 8,0 5,7 - - 16 9 - - WNW 1013,0 28 0,0
09.12.2018 12:00:00 7,3 6,0 - - 11 6 - - NW 1012,3 20 0,0
09.12.2018 11:00:00 6,7 5,8 - - 4 2 - - SW 1011,5 23 0,0
09.12.2018 10:00:00 6,1 5,2 - - 4 2 - - NW 1010,2 20 0,0
09.12.2018 09:00:00 5,4 4,6 11,0 8,2 5 3 - - NNW 1008,4 23 0,0
09.12.2018 08:00:00 6,1 5,4 - - 9 5 - - NW 1006,5 21 0,0
09.12.2018 07:00:00 5,7 5,2 - - 4 2 - - WNW 1004,5 29 0,2
09.12.2018 06:00:00 5,5 5,2 - - 11 6 - - NW 1002,6 30 0,0
09.12.2018 05:00:00 5,5 5,2 - - 11 6 - - NNW 1000,3 40 0,2
09.12.2018 04:00:00 5,8 5,3 - - 9 5 - - NNW 998,2 22 0,0
09.12.2018 03:00:00 6,5 5,8 - - 15 8 - - NW 996,4 40 0,4
09.12.2018 02:00:00 6,5 5,8 - - 9 5 - - NW 994,7 12 0,2
09.12.2018 01:00:00 6,6 5,8 - - 9 5 - - WNW 993,0 20 0,4
09.12.2018 00:00:00 7,0 6,1 - - 9 5 - - SW 991,8 21 0,0
08.12.2018 23:00:00 7,0 6,2 - - 11 6 - - SW 991,3 13 0,6
08.12.2018 22:00:00 6,6 5,9 - - 5 3 - - SW 991,3 4,9 1,2
08.12.2018 21:00:00 7,0 5,9 - - 13 7 - - WSW 991,1 23 0,0
08.12.2018 20:00:00 6,7 5,9 - - 8 4 - - W 991,1 23 1,4
08.12.2018 19:00:00 7,0 6,1 - - 9 5 - - W 990,7 5 1,4
08.12.2018 18:00:00 7,9 5,8 - - 15 8 - - W 990,3 12 0,0
08.12.2018 17:00:00 7,0 5,6 - - 18 10 - - W 990,3 25 1,0
08.12.2018 16:00:00 8,3 6,0 - - 18 10 46 25 W 990,3 14 0,0
08.12.2018 15:00:00 8,3 5,6 - - 18 10 - - W 990,4 18 0,0
08.12.2018 14:00:00 7,8 6,2 - - 21 11 - - WSW 990,6 11 0,4
08.12.2018 13:00:00 6,3 6,1 - - 11 6 - - S 991,7 8 1,4
08.12.2018 12:00:00 6,1 5,6 - - 16 9 - - SSE 992,7 10 0,8
08.12.2018 11:00:00 6,7 4,9 - - 9 5 - - S 994,2 11 0,0
08.12.2018 10:00:00 7,3 5,1 - - 13 7 - - SW 995,1 10 0,0
08.12.2018 09:00:00 7,1 5,4 11,0 8,4 15 8 - - WSW 996,4 21 0,0
08.12.2018 08:00:00 7,7 5,4 - - 16 9 - - WSW 997,4 23 0,0
08.12.2018 07:00:00 8,0 5,0 - - 13 7 - - WSW 997,7 17 0,0
08.12.2018 06:00:00 7,8 4,6 - - 13 7 - - SW 997,3 16 0,0
08.12.2018 05:00:00 7,6 3,5 - - 16 9 50 27 W 996,9 17 0,0
08.12.2018 04:00:00 8,0 4,1 - - 16 9 - - W 996,0 17 0,0
08.12.2018 03:00:00 8,1 5,0 - - 21 11 - - W 995,2 10 0,0
08.12.2018 02:00:00 8,0 5,0 - - 21 11 - - W 994,4 19 0,0
08.12.2018 01:00:00 8,2 5,1 - - 18 10 - - W 993,3 20 0,0
08.12.2018 00:00:00 8,5 6,3 - - 29 16 54 29 W 991,8 14 0,2
07.12.2018 23:00:00 8,6 6,7 - - 24 13 63 34 W 990,6 19 0,2
07.12.2018 22:00:00 8,2 6,3 - - 24 13 57 31 WSW 990,1 16 0,2
07.12.2018 21:00:00 8,1 5,8 - - 26 14 46 25 WSW 989,9 18 0,0
07.12.2018 20:00:00 7,6 6,0 - - 21 11 - - WSW 990,3 7 0,2
07.12.2018 19:00:00 7,1 5,6 - - 16 9 - - SW 990,4 14 0,6
07.12.2018 18:00:00 6,6 5,3 - - 21 11 46 25 WSW 990,7 12 1,0
07.12.2018 17:00:00 6,7 4,7 - - 22 12 - - SW 990,6 10 0,0
07.12.2018 16:00:00 5,6 4,4 - - 18 10 46 25 WSW 990,9 14 1,0
07.12.2018 15:00:00 5,3 3,7 - - 24 13 52 28 WSW 991,2 8 1,0
07.12.2018 14:00:00 6,0 3,3 - - 21 11 - - SW 991,5 17 0,0
07.12.2018 13:00:00 4,8 2,5 - - 22 12 48 26 SW 992,1 30 0,2
07.12.2018 12:00:00 5,9 2,5 - - 21 11 - - SW 992,0 16 0,0
07.12.2018 11:00:00 5,4 2,4 - - 22 12 59 32 SSW 992,5 28 0,2
07.12.2018 10:00:00 4,8 2,8 - - 18 10 - - WSW 992,7 18 0,0
07.12.2018 09:00:00 4,2 2,1 12,0 8,7 21 11 54 29 SW 992,3 30 0,2
07.12.2018 08:00:00 5,0 2,1 - - 29 16 55 30 WSW 992,5 14 0,0
07.12.2018 07:00:00 5,7 2,5 - - 18 10 - - SSW 991,6 15 0,0
07.12.2018 06:00:00 6,4 2,7 - - 18 10 - - SW 991,5 17 0,0
07.12.2018 05:00:00 7,3 2,8 - - 26 14 52 28 SW 991,8 23 0,0
07.12.2018 04:00:00 8,8 4,9 - - 21 11 55 30 WSW 992,0 11 0,0
07.12.2018 03:00:00 10,7 7,8 - - 26 14 57 31 WSW 991,6 15 0,0
07.12.2018 02:00:00 11,0 10,2 - - 28 15 48 26 S 991,1 28 0,2
07.12.2018 01:00:00 10,1 9,5 - - 35 19 61 33 SSE 992,4 4,7 0,0
07.12.2018 00:00:00 8,8 8,3 - - 35 19 54 29 SE 994,3 5 0,4
06.12.2018 23:00:00 8,1 7,6 - - 22 12 - - SSE 997,7 3,0 1,4
06.12.2018 22:00:00 8,2 7,5 - - 21 11 - - SE 999,2 8 0,0
06.12.2018 21:00:00 7,7 6,9 - - 13 7 - - S 1002,0 9 0,0
06.12.2018 20:00:00 7,6 6,8 - - 13 7 - - SSE 1002,9 9 0,0
06.12.2018 19:00:00 7,2 5,9 - - 11 6 - - SE 1004,6 10 0,0
06.12.2018 18:00:00 7,3 5,9 - - 11 6 - - SE 1005,7 12 0,0
06.12.2018 17:00:00 8,8 6,6 - - 9 5 - - SSW 1005,7 11 0,0
06.12.2018 16:00:00 9,3 6,6 - - 9 5 - - SW 1004,7 12 0,0
06.12.2018 15:00:00 9,9 6,2 - - 5 3 - - S 1004,7 14 0,0
06.12.2018 14:00:00 10,8 7,4 - - 16 9 - - W 1004,7 13 0,0
06.12.2018 13:00:00 10,8 8,7 - - 15 8 - - WSW 1004,2 12 0,0
06.12.2018 12:00:00 11,2 9,0 - - 21 11 - - WSW 1004,0 16 0,0
06.12.2018 11:00:00 10,6 10,5 - - 11 6 - - W 1003,6 3,0 1,8
06.12.2018 10:00:00 10,6 10,5 - - 16 9 - - S 1002,2 5 0,0
06.12.2018 09:00:00 10,3 10,1 10,9 8,5 13 7 - - S 1002,0 4,9 0,0
06.12.2018 08:00:00 10,0 9,9 - - 15 8 - - S 1001,7 6 0,2
06.12.2018 07:00:00 9,9 9,5 - - 22 12 - - SSE 1001,7 3,4 0,0
06.12.2018 06:00:00 9,9 9,6 - - 22 12 - - SSE 1001,8 10 0,2
06.12.2018 05:00:00 9,8 9,5 - - 26 14 46 25 SSE 1002,9 7 0,0
06.12.2018 04:00:00 9,4 9,2 - - 26 14 - - SSE 1003,7 8 0,0
06.12.2018 03:00:00 8,4 8,3 - - 21 11 - - SSE 1004,9 4,8 0,0
06.12.2018 02:00:00 7,4 7,3 - - 18 10 - - SE 1005,1 2,1 0,0
06.12.2018 01:00:00 7,2 7,2 - - 15 8 - - SE 1006,0 4,0 0,0
06.12.2018 00:00:00 6,8 6,8 - - 15 8 54 29 SE 1006,7 3,2 0,0
05.12.2018 23:00:00 6,6 6,5 - - 9 5 - - S 1007,5 0,1 0,2

tt = temperature
td = dewpoint
tt -20cm = temperature -20cm
tt -100cm = temperature -100cm
ff = wind speed
fx = gusts
dd = wind direction
ppp = reduced air pressure
vv = visibility
rr = precipitation

Next stations